Location: Krishnamma Banjar
(17.2175°N, 80.5166°E)
Time: 09:56:44
(UTC+00:00)

Centaur AC-42 - Pass Details

Date: 03 August 2024
Orbit: 636 x 36242 km, 20.0° (Epoch: 14 September)

Event Time Altitude Azimuth Distance (km) Brightness Sun altitude
Rises 15:13:08 0° 254° (WSW) 3,331 5.9 -27.7°
Reaches altitude 10° 15:14:38 10° 254° (WSW) 2,695 5.3 -28.0°
Maximum altitude 15:20:16 85° 165° (SSE) 1,840 3.7 -29.1°
Drops below altitude 10° 01:05:27 10° 125° (SE) 15,476 9.3 9.9°
Sets 01:16:00 0° 122° (ESE) 13,930 9.1 12.4°
